This is the latest recevied weather packets stored in our database for station/object K0CVS. If no packets are shown the sender has not sent any weather packets the latest 1 day(s).
| Time | Temp. | Humidity | Pressure | Rain* | Wind** | Luminosity | Snow |
|---|---|---|---|---|---|---|---|
| 1778014581 | 9.44° C | 85% | 1012.3 hPa | 0 mm | 0.45 m/s, 332° | 76 W/m² | - |
| 1778014279 | 9.44° C | 85% | 1012.2 hPa | 0 mm | 0.45 m/s, 323° | 60 W/m² | - |
| 1778013975 | 9.44° C | 86% | 1012.5 hPa | 0 mm | 0 m/s | 71 W/m² | - |
| 1778013673 | 9.44° C | 86% | 1012.4 hPa | 0 mm | 0 m/s | 66 W/m² | - |
| 1778013369 | 9.44° C | 86% | 1012.5 hPa | 0 mm | 0 m/s | 52 W/m² | - |
| 1778013067 | 9.44° C | 87% | 1012.4 hPa | 0 mm | 0 m/s | 54 W/m² | - |
| 1778012762 | 9.44° C | 86% | 1012.3 hPa | 0 mm | 0 m/s | 61 W/m² | - |
| 1778012459 | 9.44° C | 86% | 1012.4 hPa | 0 mm | 0 m/s | 68 W/m² | - |
| 1778012155 | 9.44° C | 87% | 1012.5 hPa | 0 mm | 0 m/s | 94 W/m² | - |
| 1778011853 | 9.44° C | 86% | 1012.3 hPa | 0 mm | 0 m/s | 96 W/m² | - |
| 1778011551 | 8.89° C | 85% | 1012.3 hPa | 0 mm | 0 m/s | 72 W/m² | - |
| 1778011247 | 9.44° C | 84% | 1012.4 hPa | 0 mm | 0 m/s | 76 W/m² | - |
| 1778010943 | 9.44° C | 84% | 1012.5 hPa | 0 mm | 0 m/s | 62 W/m² | - |
| 1778010642 | 9.44° C | 83% | 1012.4 hPa | 1.27 mm | 0 m/s | 53 W/m² | - |
| 1778010338 | 9.44° C | 82% | 1012.2 hPa | 1.27 mm | 0 m/s | 59 W/m² | - |
| 1778010033 | 9.44° C | 82% | 1012.3 hPa | 0 mm | 0.89 m/s, 200° | 85 W/m² | - |
| 1778009731 | 9.44° C | 85% | 1012.5 hPa | 0 mm | 0 m/s | 104 W/m² | - |
| 1778009428 | 9.44° C | 85% | 1012.3 hPa | 0 mm | 0 m/s | 92 W/m² | - |
| 1778009127 | 9.44° C | 83% | 1012.4 hPa | 0 mm | 0 m/s | 91 W/m² | - |
| 1778008824 | 9.44° C | 83% | 1012.3 hPa | 0 mm | 0 m/s | 102 W/m² | - |
| 1778008522 | 9.44° C | 85% | 1012.3 hPa | 0 mm | 0 m/s | 104 W/m² | - |
| 1778008220 | 9.44° C | 85% | 1012.4 hPa | 0 mm | 0 m/s | 71 W/m² | - |
| 1778007914 | 8.89° C | 83% | 1012.3 hPa | 0 mm | 0 m/s | 93 W/m² | - |
| 1778007610 | 8.89° C | 85% | 1012.4 hPa | 0 mm | 0.45 m/s, 183° | 97 W/m² | - |
| 1778007307 | 9.44° C | 84% | 1012.5 hPa | 0 mm | 0.45 m/s, 265° | 109 W/m² | - |
* Rain latest hour (hover to see other rain measurements)
** Current wind speed in m/s (hover to see current wind gust speed)